Previsão horária em Cechyny

Hoje, 25 Julho, Domingo

Tempo Temperatura Precipitação Vento Pressão Humidade
00:00 +17°C° 0 mm 3 m/s 744 mmHg 79%
01:00 +17°C° 0 mm 2 m/s 744 mmHg 77%
02:00 +17°C° 0 mm 2 m/s 744 mmHg 75%
03:00 +18°C° 0 mm 2 m/s 744 mmHg 73%
04:00 +18°C° 0 mm 2 m/s 743 mmHg 70%
05:00 +19°C° 0 mm 3 m/s 743 mmHg 68%
06:00 +20°C° 0 mm 3 m/s 743 mmHg 65%
07:00 +21°C° 0 mm 3 m/s 743 mmHg 61%
08:00 +22°C° 0 mm 4 m/s 743 mmHg 56%
09:00 +25°C° 0 mm 4 m/s 743 mmHg 50%
10:00 +27°C° 0 mm 5 m/s 743 mmHg 44%
11:00 +28°C° 0 mm 5 m/s 743 mmHg 41%
12:00 +29°C° 0 mm 5 m/s 743 mmHg 39%
13:00 +30°C° 0 mm 5 m/s 743 mmHg 36%
14:00 +29°C° 0 mm 4 m/s 743 mmHg 41%
15:00 +28°C° 0 mm 4 m/s 743 mmHg 46%
16:00 +27°C° 0 mm 3 m/s 743 mmHg 51%
17:00 +26°C° 0 mm 3 m/s 743 mmHg 56%
18:00 +25°C° 0 mm 3 m/s 742 mmHg 60%
19:00 +24°C° 0 mm 3 m/s 742 mmHg 65%
20:00 +22°C° 0 mm 3 m/s 743 mmHg 68%
21:00 +21°C° 0 mm 3 m/s 743 mmHg 71%
22:00 +21°C° 0 mm 2 m/s 743 mmHg 74%
23:00 +20°C° 0 mm 2 m/s 743 mmHg 75%

Amanhã, 26 Julho, Segunda-feira

Tempo Temperatura Precipitação Vento Pressão Humidade
00:00 +19°C° 0 mm 2 m/s 743 mmHg 77%
01:00 +19°C° 0 mm 2 m/s 742 mmHg 79%
02:00 +19°C° 0 mm 3 m/s 743 mmHg 79%
03:00 +18°C° 0 mm 3 m/s 743 mmHg 79%
04:00 +18°C° 0 mm 3 m/s 743 mmHg 79%
05:00 +20°C° 0 mm 3 m/s 743 mmHg 71%
06:00 +21°C° 0 mm 4 m/s 743 mmHg 64%
07:00 +23°C° 0 mm 4 m/s 743 mmHg 56%
08:00 +25°C° 0 mm 4 m/s 743 mmHg 55%
09:00 +25°C° 0 mm 5 m/s 743 mmHg 54%
10:00 +25°C° 0 mm 5 m/s 743 mmHg 53%
11:00 +25°C° 0 mm 4 m/s 743 mmHg 54%
12:00 +25°C° 0 mm 4 m/s 743 mmHg 56%
13:00 +25°C° 0 mm 4 m/s 742 mmHg 57%
14:00 +25°C° 0.2 mm 3 m/s 742 mmHg 59%
15:00 +26°C° 0.2 mm 3 m/s 742 mmHg 61%
16:00 +26°C° 0.2 mm 3 m/s 742 mmHg 63%
17:00 +25°C° 0.2 mm 3 m/s 742 mmHg 69%
18:00 +24°C° 0.2 mm 3 m/s 741 mmHg 74%
19:00 +22°C° 0.2 mm 3 m/s 741 mmHg 80%
20:00 +21°C° 0 mm 2 m/s 741 mmHg 84%
21:00 +20°C° 0 mm 2 m/s 741 mmHg 87%
22:00 +19°C° 0 mm 2 m/s 741 mmHg 91%
23:00 +19°C° 0.1 mm 2 m/s 741 mmHg 93%

Depois de amanhã, 27 Julho, Terça-feira

Tempo Temperatura Precipitação Vento Pressão Humidade
00:00 +19°C° 0.1 mm 1 m/s 741 mmHg 95%
01:00 +19°C° 0.1 mm 1 m/s 741 mmHg 97%
02:00 +19°C° 0 mm 1 m/s 741 mmHg 96%
03:00 +19°C° 0 mm 1 m/s 740 mmHg 96%
04:00 +19°C° 0 mm 1 m/s 740 mmHg 96%
05:00 +20°C° 0 mm 1 m/s 740 mmHg 90%
06:00 +20°C° 0 mm 2 m/s 741 mmHg 84%
07:00 +23°C° 0 mm 2 m/s 741 mmHg 78%
08:00 +24°C° 0 mm 2 m/s 741 mmHg 70%
09:00 +26°C° 0 mm 2 m/s 741 mmHg 61%
10:00 +28°C° 0 mm 3 m/s 741 mmHg 53%
11:00 +28°C° 0.1 mm 3 m/s 741 mmHg 52%
12:00 +28°C° 0.1 mm 4 m/s 741 mmHg 51%
13:00 +29°C° 0.1 mm 5 m/s 741 mmHg 49%
14:00 +28°C° 0.2 mm 4 m/s 741 mmHg 53%
15:00 +27°C° 0.2 mm 4 m/s 741 mmHg 56%
16:00 +26°C° 0.2 mm 4 m/s 741 mmHg 60%
17:00 +25°C° 0.3 mm 3 m/s 741 mmHg 66%
18:00 +24°C° 0.3 mm 3 m/s 742 mmHg 72%
19:00 +21°C° 0.3 mm 2 m/s 742 mmHg 78%
20:00 +21°C° 0 mm 1 m/s 742 mmHg 80%
21:00 +20°C° 0 mm 1 m/s 742 mmHg 83%
22:00 +19°C° 0 mm 1 m/s 742 mmHg 85%
23:00 +19°C° 0 mm 1 m/s 742 mmHg 86%

28 Julho, Quarta-feira

Tempo Temperatura Precipitação Vento Pressão Humidade
00:00 +19°C° 0 mm 1 m/s 742 mmHg 88%
01:00 +18°C° 0 mm 2 m/s 742 mmHg 89%
02:00 +18°C° 0 mm 2 m/s 742 mmHg 90%
03:00 +17°C° 0 mm 2 m/s 741 mmHg 91%
04:00 +17°C° 0 mm 2 m/s 741 mmHg 92%
05:00 +19°C° 0 mm 2 m/s 741 mmHg 84%
06:00 +20°C° 0 mm 2 m/s 741 mmHg 76%
07:00 +23°C° 0 mm 2 m/s 741 mmHg 69%
08:00 +25°C° 0 mm 3 m/s 741 mmHg 60%
09:00 +26°C° 0 mm 4 m/s 741 mmHg 51%
10:00 +28°C° 0 mm 4 m/s 741 mmHg 43%
11:00 +28°C° 0 mm 4 m/s 741 mmHg 43%
12:00 +27°C° 0 mm 4 m/s 741 mmHg 43%
13:00 +27°C° 0 mm 4 m/s 741 mmHg 44%
14:00 +27°C° 0 mm 3 m/s 741 mmHg 46%
15:00 +26°C° 0 mm 3 m/s 741 mmHg 49%
16:00 +26°C° 0 mm 2 m/s 741 mmHg 52%
17:00 +24°C° 0.1 mm 2 m/s 742 mmHg 58%
18:00 +23°C° 0.1 mm 2 m/s 742 mmHg 63%
19:00 +21°C° 0.1 mm 2 m/s 742 mmHg 69%
20:00 +20°C° 0 mm 2 m/s 742 mmHg 73%
21:00 +18°C° 0 mm 2 m/s 742 mmHg 78%
22:00 +17°C° 0 mm 2 m/s 742 mmHg 83%
23:00 +17°C° 0 mm 2 m/s 742 mmHg 85%

29 Julho, Quinta-feira

Tempo Temperatura Precipitação Vento Pressão Humidade
00:00 +16°C° 0 mm 2 m/s 742 mmHg 87%
01:00 +16°C° 0 mm 2 m/s 743 mmHg 90%
02:00 +15°C° 0 mm 2 m/s 743 mmHg 90%
03:00 +15°C° 0 mm 2 m/s 743 mmHg 91%
04:00 +15°C° 0 mm 2 m/s 743 mmHg 92%
05:00 +16°C° 0 mm 2 m/s 743 mmHg 84%
06:00 +18°C° 0 mm 3 m/s 743 mmHg 76%
07:00 +20°C° 0 mm 3 m/s 743 mmHg 69%
08:00 +21°C° 0 mm 3 m/s 743 mmHg 60%
09:00 +24°C° 0 mm 3 m/s 743 mmHg 52%
10:00 +26°C° 0 mm 3 m/s 743 mmHg 44%
11:00 +27°C° 0 mm 3 m/s 743 mmHg 41%
12:00 +28°C° 0 mm 3 m/s 743 mmHg 37%
13:00 +29°C° 0 mm 3 m/s 742 mmHg 34%
14:00 +28°C° 0 mm 3 m/s 742 mmHg 39%
15:00 +26°C° 0 mm 3 m/s 742 mmHg 44%
16:00 +25°C° 0 mm 2 m/s 742 mmHg 49%
17:00 +24°C° 0 mm 2 m/s 742 mmHg 54%
18:00 +24°C° 0 mm 1 m/s 742 mmHg 58%
19:00 +23°C° 0 mm 1 m/s 742 mmHg 62%
20:00 +22°C° 0 mm 1 m/s 741 mmHg 63%
21:00 +22°C° 0 mm 1 m/s 741 mmHg 65%
22:00 +20°C° 0 mm 2 m/s 741 mmHg 66%
23:00 +20°C° 0 mm 2 m/s 741 mmHg 67%

30 Julho, Sexta-feira

Tempo Temperatura Precipitação Vento Pressão Humidade
00:00 +20°C° 0 mm 2 m/s 741 mmHg 68%
01:00 +19°C° 0 mm 2 m/s 740 mmHg 69%
02:00 +19°C° 0 mm 2 m/s 740 mmHg 69%
03:00 +19°C° 0 mm 2 m/s 740 mmHg 69%
04:00 +19°C° 0 mm 2 m/s 740 mmHg 69%
05:00 +20°C° 0 mm 2 m/s 740 mmHg 65%
06:00 +21°C° 0 mm 2 m/s 739 mmHg 62%
07:00 +22°C° 0 mm 3 m/s 739 mmHg 58%
08:00 +25°C° 0 mm 4 m/s 739 mmHg 54%
09:00 +26°C° 0 mm 4 m/s 739 mmHg 50%
10:00 +28°C° 0 mm 5 m/s 738 mmHg 46%
11:00 +27°C° 0.3 mm 5 m/s 738 mmHg 51%
12:00 +26°C° 0.3 mm 5 m/s 738 mmHg 57%
13:00 +26°C° 0.3 mm 4 m/s 737 mmHg 63%
14:00 +25°C° 0.5 mm 4 m/s 738 mmHg 64%
15:00 +25°C° 0.5 mm 5 m/s 738 mmHg 65%
16:00 +23°C° 0.5 mm 5 m/s 738 mmHg 67%
17:00 +22°C° 0 mm 4 m/s 738 mmHg 68%
18:00 +21°C° 0 mm 4 m/s 738 mmHg 69%
19:00 +20°C° 0 mm 3 m/s 738 mmHg 70%
20:00 +19°C° 0 mm 3 m/s 738 mmHg 76%
21:00 +18°C° 0 mm 2 m/s 738 mmHg 82%
22:00 +16°C° 0 mm 1 m/s 738 mmHg 88%
23:00 +16°C° 0 mm 1 m/s 739 mmHg 90%
Mostrar mais

Necessitamos do seu Consentimento

A Meteoprog e os seus Fornecedores de Serviços podem armazenar e aceder a dados pessoais como cookies, identificadores do dispositivo ou outras tecnologias semelhantes existentes no seu dispositivo e processar estes dados para personalizar conteúdos e anúncios, assim como funcionalidades nas redes sociais e análise de tráfego.

  • Armazenar e/ou aceder a informações no seu dispositivo

    Os cookies, identificadores do dispositivo ou outras informações podem ser armazenados ou acedidos no seu dispositivo, para os fins acima indicados.

  • Anúncios e conteúdos personalizados, medição de anúncios e conteúdos, dados sobre o público-alvo e desenvolvimento de produtos

    Os anúncios e os conteúdos podem ser personalizados com base num perfil. Podem ser adicionados dados adicionais para uma maior personalização dos anúncios e dos conteúdos. A eficácia dos anúncios e dos conteúdos pode ser medida. Podem ser obtidas informações sobre o público que visualizou os anúncios e os conteúdos. Estes dados podem ser usados para desenvolver ou melhorar sistemas, softwares ou a experiência do utilizador.

Ao clicar em "Eu concordo”, permitirá o uso de cookies, identificadores do dispositivo e web beacons mencionados ou outras tecnologias semelhantes. As configurações do navegador do seu dispositivo podem ser alteradas.

Para certos fins, podem ser invocados interesses legítimos ao invés de consentimento. Pode ler mais informação sobre este assunto na nossa Política de Privacidade e Cookies.